Change the Weather History Date:

Monday, October 1, 2012

  Actual Average Record
Temperature  
Mean Temperature 60 °F -  
Max Temperature 71 °F 69 °F 82 °F (2013)
Min Temperature 48 °F 49 °F 39 °F (1997)
Degree Days  
Heating Degree Days 6    
Growing Degree Days 10 (Base 50)    
Moisture  
Dew Point 47 °F    
Average Humidity 64    
Maximum Humidity 90    
Minimum Humidity 39    
Precipitation  
Precipitation 0.00 in - - ()
Sea Level Pressure  
Sea Level Pressure 29.93 in    
Wind  
Wind Speed 5 mph (West)    
Max Wind Speed 14 mph    
Max Gust Speed 21 mph    
Visibility 10 miles    
Events Rain    
Averages and records for this station are not official NWS values.
T = Trace of Precipitation, MM = Missing Value Source: NWS Daily Summary

Daily Weather History Graph

Daily Weather History Graph

Search for Another Location

Airport or City:

Trip Planner

Search our weather history database for the weather conditions in past years. The results will help you decide how hot, cold, wet, or windy it might be!

Date:

Astronomy

Oct. 01, 2012 Rise Set
Actual Time 6:56 AM EDT 6:41 PM EDT
Civil Twilight 6:29 AM EDT 7:08 PM EDT
Nautical Twilight 5:58 AM EDT 7:39 PM EDT
Astronomical Twilight 5:26 AM EDT 8:11 PM EDT
Moon 7:17 PM EDT (10/1) 8:23 AM EDT (10/1)
Length of Visible Light 12h 38m
Length of Day
11h 44m
Full, 98% of the Moon is Illuminated
Oct 1
Full
Oct 8
Last Quarter
Oct 15
New
Oct 21
First Quarter
Oct 29
Full

Hourly Weather History & Observations

Time (EDT) Temp. Dew Point Humidity Pressure Visibility Wind Dir Wind Speed Gust Speed Precip Events Conditions
12:54 AM 52.0 °F 46.9 °F 83% 29.88 in 10.0 mi West 4.6 mph - N/A   Clear
1:54 AM 51.1 °F 46.9 °F 86% 29.88 in 10.0 mi WSW 5.8 mph - N/A   Clear
2:54 AM 51.1 °F 46.9 °F 86% 29.88 in 10.0 mi WSW 4.6 mph - N/A   Clear
3:54 AM 48.9 °F 46.0 °F 90% 29.88 in 10.0 mi West 4.6 mph - N/A   Clear
4:54 AM 50.0 °F 46.9 °F 89% 29.89 in 10.0 mi WNW 4.6 mph - N/A   Clear
5:54 AM 50.0 °F 46.9 °F 89% 29.90 in 10.0 mi SW 4.6 mph - N/A   Clear
6:54 AM 50.0 °F 46.0 °F 86% 29.91 in 10.0 mi WSW 4.6 mph - N/A   Clear
7:54 AM 52.0 °F 48.0 °F 86% 29.93 in 10.0 mi West 4.6 mph - N/A   Clear
8:54 AM 55.9 °F 48.9 °F 77% 29.95 in 10.0 mi WSW 3.5 mph - N/A   Clear
9:54 AM 60.8 °F 46.4 °F 59% 29.95 in 10.0 mi WNW 8.1 mph - N/A   Clear
10:54 AM 64.0 °F 48.0 °F 56% 29.96 in 10.0 mi WNW 6.9 mph - N/A   Clear
11:54 AM 66.2 °F 46.4 °F 49% 29.94 in 10.0 mi WNW 13.8 mph 20.7 mph N/A   Clear
12:54 PM 68.0 °F 45.0 °F 43% 29.94 in 10.0 mi West 13.8 mph 20.7 mph N/A   Clear
1:54 PM 69.8 °F 44.6 °F 40% 29.93 in 10.0 mi WNW 10.4 mph - N/A   Clear
2:54 PM 70.0 °F 44.1 °F 39% 29.91 in 10.0 mi West 6.9 mph - N/A   Clear
3:54 PM 71.1 °F 45.0 °F 39% 29.92 in 10.0 mi West 4.6 mph - N/A   Clear
4:54 PM 70.0 °F 46.0 °F 42% 29.92 in 10.0 mi West 8.1 mph - N/A   Clear
5:54 PM 68.0 °F 44.6 °F 43% 29.94 in 10.0 mi West 5.8 mph - N/A   Clear
6:54 PM 64.9 °F 46.9 °F 52% 29.96 in 10.0 mi West 3.5 mph - N/A   Clear
7:54 PM 66.0 °F 48.0 °F 52% 29.97 in 10.0 mi Calm Calm - N/A   Overcast
8:54 PM 64.0 °F 50.0 °F 60% 29.99 in 10.0 mi Calm Calm - N/A   Mostly Cloudy
9:54 PM 64.9 °F 50.0 °F 58% 29.99 in 10.0 mi Calm Calm - N/A   Overcast
10:54 PM 63.0 °F 52.0 °F 67% 29.97 in 10.0 mi SE 3.5 mph - N/A   Overcast
11:54 PM 64.0 °F 53.1 °F 67% 29.99 in 10.0 mi Calm Calm - 0.00 in Rain Light Rain